Weather History for Rochester, NY

Change the Weather History Date:

Tuesday, April 29, 2014

  Actual Average Record
Temperature  
Mean Temperature 52 °F 52 °F  
Max Temperature 56 °F 62 °F 86 °F (1899)
Min Temperature 47 °F 41 °F 27 °F (1977)
Degree Days  
Heating Degree Days 13 14  
Month to date heating degree days 547 552  
Since 1 July heating degree days 6780 6290  
Cooling Degree Days 0 0  
Month to date cooling degree days 1 0  
Year to date cooling degree days 1 0  
Moisture  
Dew Point 40 °F    
Average Humidity 68    
Maximum Humidity 86    
Minimum Humidity 50    
Precipitation  
Precipitation 0.36 in 0.09 in 0.69 in (1962)
Month to date precipitation 3.13 2.64  
Year to date precipitation 9.11 9.50  
Snow  
Snow 0.00 in 0.10 in 2.50 in (1909)
Month to date snowfall 0.3 3.9  
Since 1 July snowfall 112.7 99.1  
Snow Depth 0.00 in    
Sea Level Pressure  
Sea Level Pressure 30.04 in    
Wind  
Wind Speed 16 mph (SE)    
Max Wind Speed 29 mph    
Max Gust Speed 39 mph    
Visibility 9 miles    
Events Rain    
T = Trace of Precipitation, MM = Missing Value Source: NWS Daily Summary

Daily Weather History Graph

Daily Weather History Graph

Search for Another Location

Airport:

Trip Planner

Search our weather history database for the weather conditions in past years. The results will help you decide how hot, cold, wet, or windy it might be!

Date:

Astronomy

Apr. 29, 2014 Rise Set
Actual Time 6:07 AM EDT 8:09 PM EDT
Civil Twilight 5:36 AM EDT 8:40 PM EDT
Nautical Twilight 4:58 AM EDT 9:18 PM EDT
Astronomical Twilight 4:17 AM EDT 10:00 PM EDT
Moon 6:24 AM EDT (4/29) 8:48 PM EDT (4/29)
Length of Visible Light 15h 04m
Length of Day
14h 02m
New Moon, 0% of the Moon is Illuminated
Apr 29
New Moon
May 6
First Quarter
May 14
Full
May 21
Last Quarter
May 28
New

Hourly Weather History & Observations

Time (EDT) Temp. Dew Point Humidity Pressure Visibility Wind Dir Wind Speed Gust Speed Precip Events Conditions
12:54 AM 48.0 °F 36.0 °F 63% 30.01 in 10.0 mi East 6.9 mph - N/A   Partly Cloudy
1:54 AM 48.0 °F 36.0 °F 63% 30.01 in 10.0 mi East 6.9 mph - N/A   Mostly Cloudy
2:54 AM 48.9 °F 36.0 °F 61% 29.99 in 10.0 mi East 10.4 mph - N/A   Overcast
3:54 AM 50.0 °F 35.1 °F 57% 30.02 in 10.0 mi ESE 9.2 mph - N/A   Overcast
4:54 AM 51.1 °F 35.1 °F 54% 30.01 in 10.0 mi East 12.7 mph - N/A   Overcast
5:54 AM 53.1 °F 35.1 °F 50% 30.02 in 10.0 mi ESE 15.0 mph - N/A   Overcast
6:54 AM 53.1 °F 36.0 °F 52% 30.01 in 10.0 mi ESE 17.3 mph - N/A   Overcast
7:54 AM 54.0 °F 37.9 °F 55% 30.01 in 10.0 mi SE 15.0 mph - N/A   Overcast
8:54 AM 55.9 °F 39.9 °F 55% 30.02 in 10.0 mi South 24.2 mph 34.5 mph N/A   Overcast
9:54 AM 53.1 °F 43.0 °F 69% 30.04 in 10.0 mi SSE 15.0 mph 32.2 mph 0.00 in Rain Light Rain
10:54 AM 50.0 °F 42.1 °F 74% 30.05 in 9.0 mi SE 20.7 mph 33.4 mph 0.02 in Rain Light Rain
11:54 AM 48.0 °F 43.0 °F 83% 30.05 in 6.0 mi SE 21.9 mph 28.8 mph 0.06 in Rain Light Rain
12:54 PM 48.0 °F 43.0 °F 83% 30.02 in 4.0 mi SE 20.7 mph 29.9 mph 0.07 in Rain Rain
1:20 PM 48.2 °F 42.8 °F 82% 30.00 in 4.0 mi SE 17.3 mph 26.5 mph 0.05 in Rain Rain
1:54 PM 48.0 °F 43.0 °F 83% 30.01 in 6.0 mi SE 21.9 mph 32.2 mph 0.09 in Rain Light Rain
2:54 PM 48.9 °F 44.1 °F 83% 30.00 in 10.0 mi SE 19.6 mph 31.1 mph 0.04 in Rain Light Rain
3:54 PM 48.9 °F 45.0 °F 86% 30.01 in 5.0 mi SE 18.4 mph 26.5 mph 0.08 in Rain Light Rain
4:40 PM 50.0 °F 44.6 °F 82% 30.03 in 10.0 mi SSE 17.3 mph 20.7 mph 0.00 in   Overcast
4:54 PM 51.8 °F 42.8 °F 71% 30.03 in 10.0 mi SSE 20.7 mph 29.9 mph N/A Rain Light Rain
5:11 PM 51.8 °F 42.8 °F 71% 30.04 in 10.0 mi SSE 18.4 mph 26.5 mph 0.00 in   Overcast
5:54 PM 52.0 °F 42.1 °F 69% 30.06 in 10.0 mi SSE 20.7 mph 29.9 mph 0.00 in   Overcast
6:54 PM 52.0 °F 41.0 °F 66% 30.10 in 10.0 mi South 11.5 mph 21.9 mph N/A   Overcast
7:54 PM 51.1 °F 39.9 °F 66% 30.12 in 10.0 mi SSE 11.5 mph 18.4 mph N/A   Mostly Cloudy
8:54 PM 50.0 °F 39.9 °F 68% 30.14 in 10.0 mi South 12.7 mph 25.3 mph N/A   Scattered Clouds
9:54 PM 50.0 °F 39.0 °F 66% 30.14 in 10.0 mi South 18.4 mph 29.9 mph N/A   Mostly Cloudy
10:54 PM 51.1 °F 39.0 °F 63% 30.14 in 10.0 mi SSE 23.0 mph 33.4 mph N/A   Mostly Cloudy
11:54 PM 50.0 °F 39.9 °F 68% 30.13 in 10.0 mi SSE 11.5 mph - N/A   Mostly Cloudy